AirNav   Bose Proflight Series 2 Wireless viation Headset
 
 1498 users online  

5J5 Holly Hill Airport
Holly Hill, South Carolina, USA

GOING TO HOLLY HILL?


FAA INFORMATION EFFECTIVE 10 OCTOBER 2019

Location

FAA Identifier: 5J5
Lat/Long: 33-18-01.5000N 080-23-39.6000W
33-18.025000N 080-23.660000W
33.3004167,-80.3943333
(estimated)
Elevation: 96 ft. / 29 m (estimated)
Variation: 05W (1985)
From city: 2 miles SE of HOLLY HILL, SC
Time zone: UTC -4 (UTC -5 during Standard Time)
Zip code: 29059

Airport Operations

Airport use: Open to the public
Control tower: no
ARTCC: JACKSONVILLE CENTER
FSS: ANDERSON FLIGHT SERVICE STATION
NOTAMs facility: AND (NOTAM-D service available)
Attendance: UNATNDD
Wind indicator: yes
Segmented circle: no

Airport Communications

CTAF: 122.9
WX AWOS-3 at DYB (15 nm S): 119.575 (843-821-8403)
WX AWOS-3 at MKS (19 nm E): 119.175 (843-761-1486)
WX AWOS-3 at MNI (20 nm NE): 120.175 (803-478-6060)

Nearby radio navigation aids

VOR radial/distance  VOR name  Freq  Var
VANr171/10.8VANCE VORTAC110.4006W
CHSr329/30.2CHARLESTON VORTAC113.5005W

 
NDB name  Hdg/Dist  Freq  Var  ID
DORCHESTER COUNTY345/15.536507WDYB -.. -.-- -...
MANNING215/19.738106WMNI -- -. ..

Airport Services

Parking: tiedowns
Airframe service: NONE
Powerplant service: NONE
Bottled oxygen: NONE
Bulk oxygen: NONE

Runway Information

Runway 4/22

Dimensions: 2900 x 150 ft. / 884 x 46 m
Surface: turf, in good condition
RUNWAY 4  RUNWAY 22
Latitude: 33-17.849478N33-18.200223N
Longitude: 080-23.853050W080-23.465788W
Elevation: 94.0 ft.95.0 ft.
Traffic pattern: leftleft
Runway heading: 048 magnetic, 043 true228 magnetic, 223 true
Obstructions: 74 ft. tree, 459 ft. from runway, 120 ft. left of centerline, 6:1 slope to clear
ROAD AT END OF RUNWAY 4
79 ft. tree, 760 ft. from runway, 188 ft. right of centerline, 9:1 slope to clear

Airport Ownership and Management from official FAA records

Ownership: Publicly-owned
Owner: TOWN OF HOLLY HILL
PO BOX 1108
HOLLY HILL, SC 29059
Phone 803-496-3330
Manager: WILLIAM SKINNER JOHNSON
140 AIRPORT RD
HOLLY HILL, SC 29059
Phone (803) 496-4556

Airport Operational Statistics

Aircraft based on the field: 16
Single engine airplanes: 15
Ultralights: 1
    
Aircraft operations: avg 63/week *
76% local general aviation
24% transient general aviation
* for 12-month period ending 03 May 2019

Additional Remarks

FOR CD CTC CHARLESTON APCH AT 843-414-2832.

Instrument Procedures

There are no published instrument procedures at 5J5.

Some nearby airports with instrument procedures:

6J2 - St George Airport (9 nm SW)
KDYB - Summerville Airport (15 nm S)
KMKS - Berkeley County Airport (19 nm E)
KMNI - Santee Cooper Regional Airport (20 nm NE)
KOGB - Orangeburg Municipal Airport (25 nm W)
 
Loc | Ops | Rwys | IFR | FBO | Links
Com | Nav | Svcs | Stats | Notes
Area around 5J5 (Holly Hill Airport)
 
Road maps at: MapQuest Bing Google
 
Aerial photo
WARNING: Photo may not be current or correct
Aerial photo of 5J5 (Holly Hill Airport)
Do you have a better or more recent aerial photo of Holly Hill Airport that you would like to share? If so, please send us your photo.

 
Sectional chart

 
Airport distance calculator
Flying to Holly Hill Airport? Find the distance to fly.

From to 5J5

Sunrise and sunset
Times for 18-Oct-2019
 Local
(UTC-4)
 Zulu
(UTC)
Morning civil twilight07:0411:04
Sunrise07:2911:29
Sunset18:4422:44
Evening civil twilight19:0923:09

Current date and time
Zulu (UTC)  18-Oct-2019 18:40:06
Local (UTC-4)  18-Oct-2019 14:40:06
 
METAR
KDYB 
15nm S 
181815Z AUTO 04003KT 10SM CLR 21/07 A3001 RMK AO2
KMKS 
19nm E 
181815Z AUTO 33004KT 7SM CLR 19/07 A3002 RMK AO2
KMNI 
20nm NE 
181815Z AUTO 00000KT 10SM CLR 20/03 A3002 RMK AO2
KOGB 
25nm NW 
181753Z AUTO VRB05KT 10SM CLR 20/03 A3003 RMK AO2 SLP168 T02000033 10206 20094 58013
KRBW 
26nm SW 
181815Z AUTO 00000KT 10SM CLR 20/06 A3002 RMK AO2
KCHS 
30nm SE 
181756Z 35003KT 10SM SCT250 20/07 A3002 RMK AO2 SLP163 T02000072 $
TAF
KOGB 
25nm NW 
181741Z 1818/1918 09006KT P6SM BKN250 FM191100 08010KT P6SM -SHRA OVC080 FM191400 07007KT 6SM -RA OVC015 FM191600 09009KT 3SM -RA BR OVC010
KCHS 
30nm SE 
181727Z 1818/1918 09009KT P6SM BKN250 FM190600 08008KT P6SM SCT030 OVC200 FM191400 11014G20KT P6SM SHRA FEW015 OVC025
NOTAMs
Click for the latest NOTAMs
NOTAMs are issued by the DoD/FAA and will open in a separate window not controlled by AirNav.

 

 
 

Would you like to see your business listed on this page?

 If your business provides an interesting product or service to pilots, flight crews, aircraft, or users of the Holly Hill Airport, you should consider listing it here.  To start the listing process, click on the button below
 
Add a business
 

Other Pages about Holly Hill Airport

Update a link
 
Copyright © AirNav, LLC. All rights reserved. Privacy Policy  Contact